Retour au catalogue

STARLINK-4416

ActifCommunicationsSSO
NORAD 53212·PAYLOAD·🇺🇸 United States

Lancé Jul 22, 2022 depuis Vandenberg Space Force Base

Loading…

Prochains Passages (prochaines 24 heures)

TLE

FraisSource: CelesTrak SupGP

Époque: Sep 14, 2026, 21:33 UTC

1 53212C 22084Z   26257.89840278 -.00014922  00000+0 -46332-3 0  2574
2 53212  97.2831 313.7656 0001710  78.5114   3.8047 15.33438848    11

Suivez STARLINK-4416 en temps réel avec AllMySat

Download on the App Store